sat.trackr.live / text

‹ back to catalog

STARLINK-37627

NORAD 69315 · 2026-119V

PAYLOAD ACTIVE UNKNOWN

§ Identity

Operator
Country
US
Launch date
2026-05-30
Launch site
AFWTR
Launch vehicle
Mass (kg)
RCS (m²)

Purposes: comms

External: N2YO · Heavens-Above · Gunter

§ Orbital elements

Epoch: 2026-09-20T00:31:49.846080Z

Period
93.91 min
Inclination
97.2835°
Eccentricity
0.0001485
Mean motion
15.33461510 rev/d
Perigee alt
464.5 km
Apogee alt
466.5 km
Semi-major
6,843.6 km
B*
3.5160e-4
RAAN
287.8202°
Arg perigee
96.0310°
Mean anomaly
264.1102°
Rev number
1,859

§ Raw data

STARLINK-376271 69315U 26119V   26263.02210470  .00011299  00000+0  35160-3 0  99972 69315  97.2835 287.8202 0001485  96.0310 264.1102 15.33461510 18594

JSON: /api/v1/satellites/69315 · /tle

For live sub-satellite position, see the globe view (requires WebGL).

§ Visibility from observer

Set your observer location to see the next 7 days of passes ≥ 10°. The values pass through the URL so the page stays shareable.

No JS? Fill the form by hand. The geolocation button needs JavaScript.